Year,Month,Day,Hour,Minute,Value (Times are PST for temperature in C)
2007,03,29,00,00,6.70
2007,03,29,00,01,6.70
2007,03,29,00,02,6.70
2007,03,29,00,03,6.70
2007,03,29,00,04,6.70
2007,03,29,00,05,6.70
2007,03,29,00,06,6.60
2007,03,29,00,07,6.60
2007,03,29,00,08,6.60
2007,03,29,00,09,6.60
2007,03,29,00,10,6.60
2007,03,29,00,11,6.60
2007,03,29,00,12,6.60
2007,03,29,00,13,6.60
2007,03,29,00,14,6.60
2007,03,29,00,15,6.60
2007,03,29,00,16,6.60
2007,03,29,00,17,6.50
2007,03,29,00,18,6.40
2007,03,29,00,19,6.40
2007,03,29,00,20,6.40
2007,03,29,00,21,6.40
2007,03,29,00,22,6.40
2007,03,29,00,23,6.40
2007,03,29,00,24,6.40
2007,03,29,00,25,6.40
2007,03,29,00,26,6.40
2007,03,29,00,27,6.30
2007,03,29,00,28,6.30
2007,03,29,00,29,6.30
2007,03,29,00,30,6.20
2007,03,29,00,31,6.20
2007,03,29,00,32,6.20
2007,03,29,00,33,6.20
2007,03,29,00,34,6.20
2007,03,29,00,35,6.20
2007,03,29,00,36,6.20
2007,03,29,00,37,6.20
2007,03,29,00,38,6.10
2007,03,29,00,39,6.10
2007,03,29,00,40,6.10
2007,03,29,00,41,6.10
2007,03,29,00,42,6.00
2007,03,29,00,43,6.00
2007,03,29,00,44,6.00
2007,03,29,00,45,6.00
2007,03,29,00,46,6.00
2007,03,29,00,47,6.00
2007,03,29,00,48,5.90
2007,03,29,00,49,5.90
2007,03,29,00,50,5.90
2007,03,29,00,51,5.90
2007,03,29,00,52,5.90
2007,03,29,00,53,5.90
2007,03,29,00,54,5.90
2007,03,29,00,55,5.90
2007,03,29,00,56,5.80
2007,03,29,00,57,5.80
2007,03,29,00,58,5.80
2007,03,29,00,59,5.80
2007,03,29,01,00,5.70
2007,03,29,01,01,5.70
2007,03,29,01,02,5.70
2007,03,29,01,03,5.70
2007,03,29,01,04,5.70
2007,03,29,01,05,5.60
2007,03,29,01,06,5.60
2007,03,29,01,07,5.60
2007,03,29,01,08,5.50
2007,03,29,01,09,5.50
2007,03,29,01,10,5.50
2007,03,29,01,11,5.50
2007,03,29,01,12,5.40
2007,03,29,01,13,5.40
2007,03,29,01,14,5.40
2007,03,29,01,15,5.40
2007,03,29,01,16,5.40
2007,03,29,01,17,5.30
2007,03,29,01,18,5.30
2007,03,29,01,19,5.30
2007,03,29,01,20,5.30
2007,03,29,01,21,5.30
2007,03,29,01,22,5.30
2007,03,29,01,23,5.30
2007,03,29,01,24,5.20
2007,03,29,01,25,5.20
2007,03,29,01,26,5.20
2007,03,29,01,27,5.20
2007,03,29,01,28,5.10
2007,03,29,01,29,5.10
2007,03,29,01,30,5.10
2007,03,29,01,31,5.10
2007,03,29,01,32,5.10
2007,03,29,01,33,5.10
2007,03,29,01,34,5.10
2007,03,29,01,35,5.10
2007,03,29,01,36,5.10
2007,03,29,01,37,5.10
2007,03,29,01,38,5.10
2007,03,29,01,39,5.10
2007,03,29,01,40,5.00
2007,03,29,01,41,4.90
2007,03,29,01,42,4.90
2007,03,29,01,43,4.90
2007,03,29,01,44,4.90
2007,03,29,01,45,4.90
2007,03,29,01,46,4.90
2007,03,29,01,47,4.90
2007,03,29,01,48,4.80
2007,03,29,01,49,4.80
2007,03,29,01,50,4.80
2007,03,29,01,51,4.80
2007,03,29,01,52,4.80
2007,03,29,01,53,4.80
2007,03,29,01,54,4.80
2007,03,29,01,55,4.70
2007,03,29,01,56,4.70
2007,03,29,01,57,4.70
2007,03,29,01,58,4.70
2007,03,29,01,59,4.70
2007,03,29,02,00,4.70
2007,03,29,02,01,4.70
2007,03,29,02,02,4.70
2007,03,29,02,03,4.60
2007,03,29,02,04,4.60
2007,03,29,02,05,4.60
2007,03,29,02,06,4.60
2007,03,29,02,07,4.60
2007,03,29,02,08,4.60
2007,03,29,02,09,4.60
2007,03,29,02,10,4.60
2007,03,29,02,11,4.60
2007,03,29,02,12,4.60
2007,03,29,02,13,4.60
2007,03,29,02,14,4.60
2007,03,29,02,15,4.50
2007,03,29,02,16,4.50
2007,03,29,02,17,4.50
2007,03,29,02,18,4.50
2007,03,29,02,19,4.50
2007,03,29,02,20,4.50
2007,03,29,02,21,4.50
2007,03,29,02,22,4.50
2007,03,29,02,23,4.50
2007,03,29,02,24,4.50
2007,03,29,02,25,4.50
2007,03,29,02,26,4.50
2007,03,29,02,27,4.50
2007,03,29,02,28,4.50
2007,03,29,02,29,4.50
2007,03,29,02,30,4.50
2007,03,29,03,55,3.80
2007,03,29,03,56,3.80
2007,03,29,03,57,3.80
2007,03,29,03,58,3.80
2007,03,29,03,59,3.80
2007,03,29,04,00,3.80
2007,03,29,04,01,3.80
2007,03,29,04,02,3.80
2007,03,29,04,03,3.80
2007,03,29,04,04,3.80
2007,03,29,04,05,3.80
2007,03,29,04,06,3.80
2007,03,29,04,07,3.80
2007,03,29,04,08,3.80
2007,03,29,04,09,3.70
2007,03,29,04,10,3.70
2007,03,29,04,11,3.70
2007,03,29,04,12,3.70
2007,03,29,04,13,3.70
2007,03,29,04,14,3.70
2007,03,29,04,15,3.70
2007,03,29,04,16,3.60
2007,03,29,04,17,3.60
2007,03,29,04,18,3.60
2007,03,29,04,19,3.60
2007,03,29,04,20,3.60
2007,03,29,04,21,3.60
2007,03,29,04,22,3.50
2007,03,29,04,23,3.50
2007,03,29,04,24,3.50
2007,03,29,04,25,3.50
2007,03,29,04,26,3.50
2007,03,29,04,27,3.50
2007,03,29,04,28,3.50
2007,03,29,04,29,3.50
2007,03,29,04,30,3.50
2007,03,29,04,31,3.50
2007,03,29,04,32,3.50
2007,03,29,04,33,3.50
2007,03,29,04,34,3.50
2007,03,29,04,35,3.50
2007,03,29,04,36,3.50
2007,03,29,04,37,3.50
2007,03,29,04,38,3.60
2007,03,29,04,39,3.60
2007,03,29,04,40,3.60
2007,03,29,04,41,3.60
2007,03,29,04,42,3.60
2007,03,29,04,43,3.60
2007,03,29,04,44,3.60
2007,03,29,04,45,3.60
2007,03,29,04,46,3.60
2007,03,29,04,47,3.60
2007,03,29,04,48,3.60
2007,03,29,04,49,3.60
2007,03,29,04,50,3.60
2007,03,29,04,51,3.60
2007,03,29,04,52,3.60
2007,03,29,04,53,3.60
2007,03,29,04,54,3.60
2007,03,29,04,55,3.60
2007,03,29,04,56,3.60
2007,03,29,04,57,3.60
2007,03,29,04,58,3.60
2007,03,29,04,59,3.60
2007,03,29,05,00,3.60
2007,03,29,05,01,3.60
2007,03,29,05,02,3.60
2007,03,29,05,03,3.60
2007,03,29,05,04,3.60
2007,03,29,05,05,3.60
2007,03,29,05,06,3.70
2007,03,29,05,07,3.70
2007,03,29,05,08,3.70
2007,03,29,05,09,3.70
2007,03,29,05,10,3.70
2007,03,29,05,11,3.70
2007,03,29,05,12,3.80
2007,03,29,05,13,3.80
2007,03,29,05,14,3.80
2007,03,29,05,15,3.80
2007,03,29,05,16,3.80
2007,03,29,05,17,3.80
2007,03,29,05,18,3.80
2007,03,29,05,19,3.80
2007,03,29,05,20,3.80
2007,03,29,05,21,3.80
2007,03,29,05,22,3.80
2007,03,29,05,23,3.80
2007,03,29,05,24,3.80
2007,03,29,05,25,3.80
2007,03,29,05,26,3.80
2007,03,29,05,27,3.90
2007,03,29,05,28,3.90
2007,03,29,05,29,3.90
2007,03,29,05,30,3.90
2007,03,29,05,31,3.90
2007,03,29,05,32,3.90
2007,03,29,05,33,3.90
2007,03,29,05,34,3.90
2007,03,29,05,35,3.90
2007,03,29,05,36,3.90
2007,03,29,05,37,3.90
2007,03,29,05,38,4.00
2007,03,29,05,39,4.00
2007,03,29,05,40,4.00
2007,03,29,05,41,4.10
2007,03,29,05,42,4.10
2007,03,29,05,43,4.20
2007,03,29,05,44,4.20
2007,03,29,05,45,4.20
2007,03,29,05,46,4.20
2007,03,29,05,47,4.20
2007,03,29,05,48,4.20
2007,03,29,05,49,4.20
2007,03,29,05,50,4.20
2007,03,29,05,51,4.20
2007,03,29,05,52,4.20
2007,03,29,05,53,4.20
2007,03,29,05,54,4.20
2007,03,29,05,55,4.20
2007,03,29,05,56,4.20
2007,03,29,05,57,4.20
2007,03,29,05,58,4.20
2007,03,29,05,59,4.10
2007,03,29,06,00,4.10
2007,03,29,06,01,4.10
2007,03,29,06,02,4.10
2007,03,29,06,03,4.10
2007,03,29,06,04,4.10
2007,03,29,06,05,4.10
2007,03,29,06,06,4.10
2007,03,29,06,07,4.10
2007,03,29,06,08,4.20
2007,03,29,06,09,4.20
2007,03,29,06,10,4.20
2007,03,29,06,11,4.10
2007,03,29,06,12,4.10
2007,03,29,06,13,4.10
2007,03,29,06,14,4.10
2007,03,29,06,15,4.10
2007,03,29,06,16,4.10
2007,03,29,06,17,4.10
2007,03,29,06,18,4.00
2007,03,29,06,19,4.00
2007,03,29,06,20,4.00
2007,03,29,06,21,4.00
2007,03,29,06,22,4.00
2007,03,29,06,23,4.00
2007,03,29,06,24,3.90
2007,03,29,06,25,3.90
2007,03,29,06,26,3.90
2007,03,29,06,27,3.90
2007,03,29,06,28,3.90
2007,03,29,06,29,3.90
2007,03,29,06,30,4.00
2007,03,29,06,31,4.00
2007,03,29,06,32,4.00
2007,03,29,06,33,4.00
2007,03,29,06,34,4.00
2007,03,29,06,35,4.00
2007,03,29,06,36,3.90
2007,03,29,06,37,3.90
2007,03,29,06,38,3.90
2007,03,29,06,39,3.90
2007,03,29,06,40,3.90
2007,03,29,06,41,3.90
2007,03,29,06,42,3.90
2007,03,29,06,43,3.90
2007,03,29,06,44,3.90
2007,03,29,06,45,3.90
2007,03,29,06,46,3.90
2007,03,29,06,47,3.90
2007,03,29,06,48,3.90
2007,03,29,06,49,3.90
2007,03,29,06,50,3.90
2007,03,29,06,51,3.80
2007,03,29,06,52,3.80
2007,03,29,06,53,3.80
2007,03,29,06,54,3.80
2007,03,29,06,55,3.80
2007,03,29,06,56,3.80
2007,03,29,06,57,3.80
2007,03,29,06,58,3.80
2007,03,29,06,59,3.80
2007,03,29,07,00,3.80
2007,03,29,07,01,3.80
2007,03,29,07,02,3.80
2007,03,29,07,03,3.80
2007,03,29,07,04,3.80
2007,03,29,07,05,3.80
2007,03,29,07,06,3.80
2007,03,29,07,07,3.80
2007,03,29,07,08,3.80
2007,03,29,07,09,3.80
2007,03,29,07,10,3.80
2007,03,29,07,11,3.80
2007,03,29,07,12,3.80
2007,03,29,07,13,3.80
2007,03,29,07,14,3.80
2007,03,29,07,15,3.80
2007,03,29,07,16,3.80
2007,03,29,07,17,3.90
2007,03,29,07,18,3.90
2007,03,29,07,19,3.90
2007,03,29,07,20,4.00
2007,03,29,07,21,4.00
2007,03,29,07,22,4.00
2007,03,29,07,23,4.00
2007,03,29,07,24,4.00
2007,03,29,07,25,4.00
2007,03,29,07,26,4.00
2007,03,29,07,27,4.00
2007,03,29,07,28,4.10
2007,03,29,07,29,4.10
2007,03,29,07,30,4.10
2007,03,29,07,31,4.10
2007,03,29,07,32,4.10
2007,03,29,07,33,4.10
2007,03,29,07,34,4.10
2007,03,29,07,35,4.10
2007,03,29,07,36,4.10
2007,03,29,07,37,4.10
2007,03,29,07,38,4.10
2007,03,29,07,39,4.10
2007,03,29,07,40,4.10
2007,03,29,07,41,4.10
2007,03,29,07,42,4.20
2007,03,29,07,43,4.20
2007,03,29,07,44,4.20
2007,03,29,07,45,4.20
2007,03,29,07,46,4.20
2007,03,29,07,47,4.20
2007,03,29,07,48,4.20
2007,03,29,07,49,4.20
2007,03,29,07,50,4.20
2007,03,29,07,51,4.20
2007,03,29,07,52,4.10
2007,03,29,07,53,4.10
2007,03,29,07,54,4.10
2007,03,29,07,55,4.20
2007,03,29,07,56,4.20
2007,03,29,07,57,4.20
2007,03,29,07,58,4.20
2007,03,29,07,59,4.20
2007,03,29,08,00,4.20
2007,03,29,08,01,4.20
2007,03,29,08,02,4.30
2007,03,29,08,03,4.30
2007,03,29,08,04,4.40
2007,03,29,08,05,4.40
2007,03,29,08,06,4.40
2007,03,29,08,07,4.50
2007,03,29,08,08,4.50
2007,03,29,08,09,4.60
2007,03,29,08,10,4.60
2007,03,29,08,11,4.70
2007,03,29,08,12,4.80
2007,03,29,08,13,4.90
2007,03,29,08,14,4.90
2007,03,29,08,15,4.90
2007,03,29,08,16,5.00
2007,03,29,08,17,5.10
2007,03,29,08,18,5.10
2007,03,29,08,19,5.10
2007,03,29,08,20,5.10
2007,03,29,08,21,5.10
2007,03,29,08,22,5.20
2007,03,29,08,23,5.20
2007,03,29,08,24,5.30
2007,03,29,08,25,5.30
2007,03,29,08,26,5.30
2007,03,29,08,27,5.30
2007,03,29,08,28,5.40
2007,03,29,08,29,5.50
2007,03,29,08,30,5.60
2007,03,29,08,31,5.70
2007,03,29,08,32,5.70
2007,03,29,08,33,5.80
2007,03,29,08,34,5.90
2007,03,29,08,35,6.00
2007,03,29,08,36,6.20
2007,03,29,08,37,6.20
2007,03,29,08,38,6.40
2007,03,29,08,39,6.50
2007,03,29,08,40,6.60
2007,03,29,08,41,6.70
2007,03,29,08,42,6.80
2007,03,29,08,43,6.90
2007,03,29,08,44,6.90
2007,03,29,08,45,7.00
2007,03,29,08,46,7.00
2007,03,29,08,47,7.10
2007,03,29,08,48,7.10
2007,03,29,08,49,7.10
2007,03,29,08,50,7.10
2007,03,29,08,51,7.20
2007,03,29,08,52,7.20
2007,03,29,08,53,7.30
2007,03,29,08,54,7.40
2007,03,29,08,55,7.40
2007,03,29,08,56,7.50
2007,03,29,08,57,7.50
2007,03,29,08,58,7.50
2007,03,29,08,59,7.60
2007,03,29,09,00,7.70
2007,03,29,09,01,7.70
2007,03,29,09,02,7.70
2007,03,29,09,03,7.80
2007,03,29,09,04,7.80
2007,03,29,09,05,7.80
2007,03,29,09,06,7.80
2007,03,29,09,07,7.80
2007,03,29,09,08,7.80
2007,03,29,09,09,7.80
2007,03,29,09,10,7.80
2007,03,29,09,11,7.80
2007,03,29,09,12,7.80
2007,03,29,09,13,7.80
2007,03,29,09,14,7.80
2007,03,29,09,15,7.80
2007,03,29,09,16,7.80
2007,03,29,09,17,7.80
2007,03,29,09,18,7.80
2007,03,29,09,19,7.80
2007,03,29,09,20,7.80
2007,03,29,09,21,7.80
2007,03,29,09,22,7.80
2007,03,29,09,23,7.80
2007,03,29,09,24,7.80
2007,03,29,09,25,7.80
2007,03,29,09,26,7.80
2007,03,29,09,27,7.80
2007,03,29,09,28,7.80
2007,03,29,09,29,7.80
2007,03,29,09,30,7.80
2007,03,29,09,31,7.80
2007,03,29,09,32,7.80
2007,03,29,09,33,7.90
2007,03,29,09,34,7.90
2007,03,29,09,35,7.90
2007,03,29,09,36,7.90
2007,03,29,09,37,7.90
2007,03,29,09,38,7.90
2007,03,29,09,39,7.90
2007,03,29,09,40,8.00
2007,03,29,09,41,8.00
2007,03,29,09,42,8.00
2007,03,29,09,43,8.10
2007,03,29,09,44,8.10
2007,03,29,09,45,8.10
2007,03,29,09,46,8.10
2007,03,29,09,47,8.20
2007,03,29,09,48,8.20
2007,03,29,09,49,8.20
2007,03,29,09,50,8.20
2007,03,29,09,51,8.20
2007,03,29,09,52,8.20
2007,03,29,09,53,8.30
2007,03,29,09,54,8.30
2007,03,29,09,55,8.40
2007,03,29,09,56,8.40
2007,03,29,09,57,8.50
2007,03,29,09,58,8.60
2007,03,29,09,59,8.60
2007,03,29,10,00,8.60
2007,03,29,10,01,8.60
2007,03,29,10,02,8.70
2007,03,29,10,03,8.70
2007,03,29,10,04,8.70
2007,03,29,10,05,8.70
2007,03,29,10,06,8.70
2007,03,29,10,07,8.70
2007,03,29,10,08,8.70
2007,03,29,10,09,8.60
2007,03,29,10,10,8.60
2007,03,29,10,11,8.60
2007,03,29,10,12,8.70
2007,03,29,10,13,8.70
2007,03,29,10,14,8.80
2007,03,29,10,15,8.90
2007,03,29,10,16,8.90
2007,03,29,10,17,9.00
2007,03,29,10,18,9.10
2007,03,29,10,19,9.10
2007,03,29,10,20,9.20
2007,03,29,10,21,9.20
2007,03,29,10,22,9.30
2007,03,29,10,23,9.30
2007,03,29,10,24,9.30
2007,03,29,10,25,9.30
2007,03,29,10,26,9.50
2007,03,29,10,27,9.50
2007,03,29,10,28,9.60
2007,03,29,10,29,9.50
2007,03,29,10,30,9.50
2007,03,29,10,31,9.60
2007,03,29,10,32,9.60
2007,03,29,10,33,9.60
2007,03,29,10,34,9.60
2007,03,29,10,35,9.50
2007,03,29,10,36,9.40
2007,03,29,10,37,9.40
2007,03,29,10,38,9.40
2007,03,29,10,39,9.30
2007,03,29,10,40,9.30
2007,03,29,10,41,9.30
2007,03,29,10,42,9.30
2007,03,29,10,43,9.40
2007,03,29,10,44,9.50
2007,03,29,10,45,9.60
2007,03,29,10,46,9.70
2007,03,29,10,47,9.70
2007,03,29,10,48,9.70
2007,03,29,10,49,9.70
2007,03,29,10,50,9.70
2007,03,29,10,51,9.70
2007,03,29,10,52,9.70
2007,03,29,10,53,9.90
2007,03,29,10,54,9.90
2007,03,29,10,55,9.90
2007,03,29,10,56,9.90
2007,03,29,10,57,9.90
2007,03,29,10,58,9.90
2007,03,29,10,59,9.90
2007,03,29,11,00,9.90
2007,03,29,11,01,9.90
2007,03,29,11,02,9.90
2007,03,29,11,03,10.10
2007,03,29,11,04,10.10
2007,03,29,11,05,10.10
2007,03,29,11,06,10.10
2007,03,29,11,07,10.10
2007,03,29,11,08,10.10
2007,03,29,11,09,10.20
2007,03,29,11,10,10.30
2007,03,29,11,11,10.30
2007,03,29,11,12,10.30
2007,03,29,11,13,10.30
2007,03,29,11,14,10.30
2007,03,29,11,15,10.30
2007,03,29,11,16,10.30
2007,03,29,11,17,10.30
2007,03,29,11,18,10.30
2007,03,29,11,19,10.30
2007,03,29,11,20,10.40
2007,03,29,11,21,10.60
2007,03,29,11,22,10.60
2007,03,29,11,23,10.60
2007,03,29,11,24,10.60
2007,03,29,11,25,10.60
2007,03,29,11,26,10.60
2007,03,29,11,27,10.60
2007,03,29,11,28,10.60
2007,03,29,11,29,10.50
2007,03,29,11,30,10.40
2007,03,29,11,31,10.40
2007,03,29,11,32,10.40
2007,03,29,11,33,10.40
2007,03,29,11,34,10.40
2007,03,29,11,35,10.50
2007,03,29,11,36,10.50
2007,03,29,11,37,10.50
2007,03,29,11,38,10.60
2007,03,29,11,39,10.60
2007,03,29,11,40,10.60
2007,03,29,11,41,10.60
2007,03,29,11,42,10.60
2007,03,29,11,43,10.60
2007,03,29,11,44,10.70
2007,03,29,11,45,10.80
2007,03,29,11,46,10.90
2007,03,29,11,47,11.00
2007,03,29,11,48,11.10
2007,03,29,11,49,11.10
2007,03,29,11,50,11.20
2007,03,29,11,51,11.20
2007,03,29,11,52,11.20
2007,03,29,11,53,11.30
2007,03,29,11,54,11.30
2007,03,29,11,55,11.40
2007,03,29,11,56,11.40
2007,03,29,11,57,11.40
2007,03,29,11,58,11.60
2007,03,29,11,59,11.60
2007,03,29,12,00,11.60
2007,03,29,12,01,11.50
2007,03,29,12,02,11.40
2007,03,29,12,03,11.40
2007,03,29,12,04,11.40
2007,03,29,12,05,11.40
2007,03,29,12,06,11.40
2007,03,29,12,07,11.40
2007,03,29,12,08,11.40
2007,03,29,12,09,11.40
2007,03,29,12,10,11.40
2007,03,29,12,11,11.40
2007,03,29,12,12,11.40
2007,03,29,12,13,11.40
2007,03,29,12,14,11.40
2007,03,29,12,15,11.50
2007,03,29,12,16,11.50
2007,03,29,12,17,11.50
2007,03,29,12,18,11.60
2007,03,29,12,19,11.70
2007,03,29,12,20,11.50
2007,03,29,12,21,11.40
2007,03,29,12,22,11.50
2007,03,29,12,23,11.60
2007,03,29,12,24,11.60
2007,03,29,12,25,11.60
2007,03,29,12,26,11.60
2007,03,29,12,27,11.60
2007,03,29,12,28,11.60
2007,03,29,12,29,11.60
2007,03,29,12,30,11.60
2007,03,29,12,31,11.60
2007,03,29,12,32,11.60
2007,03,29,12,33,11.60
2007,03,29,12,34,11.60
2007,03,29,12,35,11.60
2007,03,29,12,36,11.50
2007,03,29,12,37,11.40
2007,03,29,12,38,11.40
2007,03,29,12,39,11.40
2007,03,29,12,40,11.40
2007,03,29,12,41,11.60
2007,03,29,12,42,11.60
2007,03,29,12,43,11.60
2007,03,29,12,44,11.70
2007,03,29,12,45,11.80
2007,03,29,12,46,11.90
2007,03,29,12,47,12.00
2007,03,29,12,48,12.10
2007,03,29,12,49,12.10
2007,03,29,12,50,12.00
2007,03,29,12,51,12.10
2007,03,29,12,52,12.10
2007,03,29,12,53,12.20
2007,03,29,12,54,12.30
2007,03,29,12,55,12.50
2007,03,29,12,56,12.50
2007,03,29,12,57,12.50
2007,03,29,12,58,12.60
2007,03,29,12,59,12.70
2007,03,29,13,00,12.70
2007,03,29,13,01,12.70
2007,03,29,13,02,12.60
2007,03,29,13,03,12.60
2007,03,29,13,04,12.50
2007,03,29,13,05,12.50
2007,03,29,13,06,12.50
2007,03,29,13,07,12.50
2007,03,29,13,08,12.50
2007,03,29,13,09,12.50
2007,03,29,13,10,12.60
2007,03,29,13,11,12.70
2007,03,29,13,12,12.60
2007,03,29,13,13,12.40
2007,03,29,13,14,12.20
2007,03,29,13,15,12.20
2007,03,29,13,16,12.10
2007,03,29,13,17,12.10
2007,03,29,13,18,12.20
2007,03,29,13,19,12.20
2007,03,29,13,20,12.20
2007,03,29,13,21,12.30
2007,03,29,13,22,12.30
2007,03,29,13,23,12.30
2007,03,29,13,24,12.20
2007,03,29,13,25,12.20
2007,03,29,13,26,12.30
2007,03,29,13,27,12.30
2007,03,29,13,28,12.40
2007,03,29,13,29,12.40
2007,03,29,13,30,12.30
2007,03,29,13,31,12.20
2007,03,29,13,32,12.20
2007,03,29,13,33,12.10
2007,03,29,13,34,12.10
2007,03,29,13,35,12.10
2007,03,29,13,36,12.20
2007,03,29,13,37,12.20
2007,03,29,13,38,12.10
2007,03,29,13,39,11.90
2007,03,29,13,40,11.80
2007,03,29,13,41,11.80
2007,03,29,13,42,11.80
2007,03,29,13,43,11.60
2007,03,29,13,44,11.60
2007,03,29,13,45,11.60
2007,03,29,13,46,11.40
2007,03,29,13,47,11.40
2007,03,29,13,48,11.40
2007,03,29,13,49,11.40
2007,03,29,13,50,11.50
2007,03,29,13,51,11.60
2007,03,29,13,52,11.80
2007,03,29,13,53,11.80
2007,03,29,13,54,11.90
2007,03,29,13,55,11.90
2007,03,29,13,56,12.00
2007,03,29,13,57,12.00
2007,03,29,13,58,12.10
2007,03,29,13,59,12.00
2007,03,29,14,00,12.10
2007,03,29,14,01,12.20
2007,03,29,14,02,12.30
2007,03,29,14,03,12.30
2007,03,29,14,04,12.30
2007,03,29,14,05,12.30
2007,03,29,14,06,12.30
2007,03,29,14,07,12.50
2007,03,29,14,08,12.60
2007,03,29,14,09,12.80
2007,03,29,14,10,12.80
2007,03,29,14,11,12.90
2007,03,29,14,12,12.90
2007,03,29,14,13,13.00
2007,03,29,14,14,13.00
2007,03,29,14,15,13.10
2007,03,29,14,16,13.10
2007,03,29,14,17,13.00
2007,03,29,14,18,13.00
2007,03,29,14,19,13.00
2007,03,29,14,20,13.00
2007,03,29,14,21,13.00
2007,03,29,14,22,13.10
2007,03,29,14,23,13.20
2007,03,29,14,24,13.30
2007,03,29,14,25,13.30
2007,03,29,14,26,13.40
2007,03,29,14,27,13.30
2007,03,29,14,28,13.30
2007,03,29,14,29,13.20
2007,03,29,14,30,13.20
2007,03,29,14,31,13.20
2007,03,29,14,32,13.30
2007,03,29,14,33,13.30
2007,03,29,14,34,13.20
2007,03,29,14,35,13.20
2007,03,29,14,36,13.10
2007,03,29,14,37,13.10
2007,03,29,14,38,12.90
2007,03,29,14,39,12.70
2007,03,29,14,40,12.60
2007,03,29,14,41,12.60
2007,03,29,14,42,12.50
2007,03,29,14,43,12.40
2007,03,29,14,44,12.40
2007,03,29,14,45,12.30
2007,03,29,14,46,12.30
2007,03,29,14,47,12.30
2007,03,29,14,48,12.30
2007,03,29,14,49,12.30
2007,03,29,14,50,12.30
2007,03,29,14,51,12.30
2007,03,29,14,52,12.30
2007,03,29,14,53,12.30
2007,03,29,14,54,12.30
2007,03,29,14,55,12.30
2007,03,29,14,56,12.40
2007,03,29,14,57,12.40
2007,03,29,14,58,12.40
2007,03,29,14,59,12.30
2007,03,29,15,00,12.20
2007,03,29,15,01,12.20
2007,03,29,15,02,12.20
2007,03,29,15,03,12.30
2007,03,29,15,04,12.30
2007,03,29,15,05,12.40
2007,03,29,15,06,12.60
2007,03,29,15,07,12.70
2007,03,29,15,08,12.80
2007,03,29,15,09,12.90
2007,03,29,15,10,12.90
2007,03,29,15,11,12.90
2007,03,29,15,12,12.90
2007,03,29,15,13,12.90
2007,03,29,15,14,12.90
2007,03,29,15,15,12.90
2007,03,29,15,16,12.90
2007,03,29,15,17,12.90
2007,03,29,15,18,12.90
2007,03,29,15,52,11.80
2007,03,29,15,53,11.80
2007,03,29,15,54,11.80
2007,03,29,15,55,11.80
2007,03,29,15,56,11.80
2007,03,29,15,57,11.80
2007,03,29,15,58,11.80
2007,03,29,15,59,11.80
2007,03,29,16,00,11.70
2007,03,29,16,01,11.70
2007,03,29,16,02,11.70
2007,03,29,16,03,11.70
2007,03,29,16,04,11.80
2007,03,29,16,05,11.80
2007,03,29,16,06,11.80
2007,03,29,16,07,12.00
2007,03,29,16,08,12.10
2007,03,29,16,09,12.10
2007,03,29,16,10,12.20
2007,03,29,16,11,12.30
2007,03,29,16,12,12.40
2007,03,29,16,13,12.40
2007,03,29,16,14,12.50
2007,03,29,16,15,12.50
2007,03,29,16,16,12.60
2007,03,29,16,17,12.60
2007,03,29,16,18,12.60
2007,03,29,16,19,12.70
2007,03,29,16,20,12.70
2007,03,29,16,21,12.70
2007,03,29,16,22,12.70
2007,03,29,16,23,12.70
2007,03,29,16,24,12.70
2007,03,29,16,25,12.70
2007,03,29,16,26,12.70
2007,03,29,16,27,12.70
2007,03,29,16,28,12.70
2007,03,29,16,29,12.70
2007,03,29,16,30,12.70
2007,03,29,16,31,12.60
2007,03,29,16,32,12.50
2007,03,29,16,33,12.30
2007,03,29,16,34,12.30
2007,03,29,16,35,12.30
2007,03,29,16,36,12.20
2007,03,29,16,37,12.10
2007,03,29,16,38,11.90
2007,03,29,16,39,11.80
2007,03,29,16,40,11.80
2007,03,29,16,41,11.80
2007,03,29,16,42,11.70
2007,03,29,16,43,11.80
2007,03,29,16,44,11.80
2007,03,29,16,45,11.80
2007,03,29,16,46,11.80
2007,03,29,16,47,11.70
2007,03,29,16,48,11.70
2007,03,29,16,49,11.80
2007,03,29,16,50,11.80
2007,03,29,16,51,11.80
2007,03,29,16,52,11.80
2007,03,29,16,53,11.80
2007,03,29,16,54,11.80
2007,03,29,16,55,11.80
2007,03,29,16,56,11.90
2007,03,29,16,57,12.00
2007,03,29,16,58,12.00
2007,03,29,16,59,12.00
2007,03,29,17,00,12.00
2007,03,29,17,01,12.00
2007,03,29,17,02,12.00
2007,03,29,17,03,12.00
2007,03,29,17,04,12.10
2007,03,29,17,05,12.10
2007,03,29,17,06,12.10
2007,03,29,17,07,12.10
2007,03,29,17,08,12.00
2007,03,29,17,09,11.90
2007,03,29,17,10,11.80
2007,03,29,17,11,11.80
2007,03,29,17,12,11.80
2007,03,29,17,13,11.70
2007,03,29,17,14,11.70
2007,03,29,17,15,11.60
2007,03,29,17,16,11.60
2007,03,29,17,17,11.60
2007,03,29,17,18,11.60
2007,03,29,17,19,11.60
2007,03,29,17,20,11.60
2007,03,29,17,21,11.60
2007,03,29,17,22,11.60
2007,03,29,17,23,11.50
2007,03,29,17,24,11.40
2007,03,29,17,25,11.30
2007,03,29,17,26,11.20
2007,03,29,17,27,11.10
2007,03,29,17,28,11.10
2007,03,29,17,29,11.10
2007,03,29,17,30,11.10
2007,03,29,17,31,11.10
2007,03,29,17,32,11.10
2007,03,29,17,33,11.00
2007,03,29,17,34,10.90
2007,03,29,17,35,10.90
2007,03,29,17,36,10.90
2007,03,29,17,37,10.90
2007,03,29,17,38,10.80
2007,03,29,17,39,10.70
2007,03,29,17,40,10.70
2007,03,29,17,41,10.70
2007,03,29,17,42,10.80
2007,03,29,17,43,10.80
2007,03,29,17,44,10.80
2007,03,29,17,45,10.80
2007,03,29,17,46,10.80
2007,03,29,17,47,10.80
2007,03,29,17,48,10.80
2007,03,29,17,49,10.80
2007,03,29,17,50,10.80
2007,03,29,17,51,10.80
2007,03,29,17,52,10.80
2007,03,29,17,53,10.90
2007,03,29,17,54,10.90
2007,03,29,17,55,10.90
2007,03,29,17,56,10.80
2007,03,29,17,57,10.80
2007,03,29,17,58,10.80
2007,03,29,17,59,10.70
2007,03,29,18,00,10.70
2007,03,29,18,01,10.70
2007,03,29,18,02,10.70
2007,03,29,18,03,10.70
2007,03,29,18,04,10.80
2007,03,29,18,05,10.80
2007,03,29,18,06,10.80
2007,03,29,18,07,10.80
2007,03,29,18,08,10.80
2007,03,29,18,09,10.80
2007,03,29,18,10,10.80
2007,03,29,18,11,10.70
2007,03,29,18,12,10.70
2007,03,29,18,13,10.70
2007,03,29,18,14,10.70
2007,03,29,18,15,10.70
2007,03,29,18,16,10.70
2007,03,29,18,17,10.70
2007,03,29,18,18,10.70
2007,03,29,18,19,10.70
2007,03,29,18,20,10.70
2007,03,29,18,21,10.80
2007,03,29,18,22,10.80
2007,03,29,18,23,10.70
2007,03,29,18,24,10.80
2007,03,29,18,25,10.80
2007,03,29,18,26,10.80
2007,03,29,18,27,10.80
2007,03,29,18,28,10.70
2007,03,29,18,29,10.70
2007,03,29,18,30,10.60
2007,03,29,18,31,10.60
2007,03,29,18,32,10.60
2007,03,29,18,33,10.60
2007,03,29,18,34,10.60
2007,03,29,18,35,10.60
2007,03,29,18,36,10.60
2007,03,29,18,37,10.60
2007,03,29,18,38,10.60
2007,03,29,18,39,10.60
2007,03,29,18,40,10.60
2007,03,29,18,41,10.60
2007,03,29,18,42,10.70
2007,03,29,18,43,10.70
2007,03,29,18,44,10.70
2007,03,29,18,45,10.80
2007,03,29,18,46,10.80
2007,03,29,18,47,10.80
2007,03,29,18,48,10.70
2007,03,29,18,49,10.70
2007,03,29,18,50,10.70
2007,03,29,18,51,10.70
2007,03,29,18,52,10.70
2007,03,29,18,53,10.70
2007,03,29,18,54,10.70
2007,03,29,18,55,10.70
2007,03,29,18,56,10.70
2007,03,29,18,57,10.60
2007,03,29,18,58,10.60
2007,03,29,18,59,10.60
2007,03,29,19,00,10.60
2007,03,29,19,01,10.70
2007,03,29,19,02,10.70
2007,03,29,19,03,10.70
2007,03,29,19,04,10.60
2007,03,29,19,05,10.60
2007,03,29,19,06,10.60
2007,03,29,19,07,10.60
2007,03,29,19,08,10.60
2007,03,29,19,09,10.50
2007,03,29,19,10,10.40
2007,03,29,19,11,10.40
2007,03,29,19,12,10.40
2007,03,29,19,13,10.40
2007,03,29,19,14,10.30
2007,03,29,19,15,10.30
2007,03,29,19,16,10.30
2007,03,29,19,17,10.30
2007,03,29,19,18,10.30
2007,03,29,19,19,10.20
2007,03,29,19,20,10.20
2007,03,29,19,21,10.20
2007,03,29,19,22,10.20
2007,03,29,19,23,10.10
2007,03,29,19,24,10.10
2007,03,29,19,25,10.00
2007,03,29,19,26,9.90
2007,03,29,19,27,9.90
2007,03,29,19,28,9.90
2007,03,29,19,29,9.90
2007,03,29,19,30,9.90
2007,03,29,19,31,9.90
2007,03,29,19,32,9.90
2007,03,29,19,33,9.90
2007,03,29,19,34,9.90
2007,03,29,19,35,9.90
2007,03,29,19,36,9.90
2007,03,29,19,37,9.90
2007,03,29,19,38,9.80
2007,03,29,19,39,9.80
2007,03,29,19,40,9.80
2007,03,29,19,41,9.80
2007,03,29,19,42,9.70